Squaw Valley, USA 16 day weather forecast

Slopes altitude range 1890 m - 2760m

Number of lifts: 27 Pistes: 100km

In some cases the lift and piste totals shown are for the ski domain (e.g. Three Valleys) rather than individual resort (e.g. Courchevel)

Overview

The 16 day weather forecast is fully updated 4 times every day.

    • Wed 26 JUN 2019
    • Wed 26
    • 8C 9C
    • Thu 27 JUN 2019
    • Thu 27
    • 6C 7C
    • Fri 28 JUN 2019
    • Fri 28
    • 7C 8C
    • Sat 29 JUN 2019
    • Sat 29
    • 6C 7C
    • Sun 30 JUN 2019
    • Sun 30
    • 8C 10C
    • Mon 01 JUL 2019
    • Mon 01
    • 6C 8C
    • Tue 02 JUL 2019
    • Tue 02
    • 8C 10C
    • Wed 03 JUL 2019
    • Wed 03
    • 9C 11C
    • Thu 04 JUL 2019
    • Thu 04
    • 11C 13C
    • Fri 05 JUL 2019
    • Fri 05
    • 10C 11C
    • Sat 06 JUL 2019
    • Sat 06
    • 12C 14C
    • Sun 07 JUL 2019
    • Sun 07
    • 14C 15C
    • Mon 08 JUL 2019
    • Mon 08
    • 13C 14C
    • Tue 09 JUL 2019
    • Tue 09
    • 11C 12C
    • Wed 10 JUL 2019
    • Wed 10
    • 11C 12C
    • Thu 11 JUL 2019
    • Thu 11
    • 11C 12C

Date:

Time Type 0°C level Temp Chill Snow Cloud Speed Gust Dir Press
3:00 4021m 13°C 13_11 0cm 2% 11mph 20mph 1009mB
6:00 3980m 9°C 9_9 0cm 1% 9mph 16mph 1011mB
9:00 3874m 9°C 9_9 0cm 35% 9mph 14mph 1012mB
12:00 3729m 9°C 9_10 0cm 21% 10mph 15mph 1012mB
15:00 3528m 12°C 12_12 0cm 3% 12mph 25mph 1012mB
18:00 3537m 15°C 15_21 0cm 2% 21mph 30mph 1011mB
21:00 3562m 15°C 15_24 0cm 0% 24mph 34mph 1011mB
0:00 3867m 13°C 13_28 0cm 0% 28mph 39mph 1011mB
3:00 4033m 9°C 9_19 0cm 0% 19mph 36mph 1013mB
6:00 4083m 7°C 7_14 0cm 0% 14mph 32mph 1015mB
9:00 3803m 7°C 7_12 0cm 0% 12mph 25mph 1016mB
12:00 3602m 7°C 7_12 0cm 0% 12mph 22mph 1016mB
15:00 3207m 10°C 10_14 0cm 0% 14mph 28mph 1015mB
18:00 3389m 14°C 14_24 0cm 0% 24mph 33mph 1015mB
21:00 3508m 13°C 13_25 0cm 7% 25mph 34mph 1014mB
0:00 3864m 13°C 13_20 0cm 43% 20mph 30mph 1014mB
3:00 3823m 10°C 10_7 0cm 44% 7mph 10mph 1015mB
6:00 3751m 7°C 7_6 0cm 71% 6mph 7mph 1017mB
9:00 3612m 7°C 7_4 0cm 98% 4mph 5mph 1016mB
12:00 3437m 8°C 8_6 0cm 99% 6mph 9mph 1017mB
15:00 3257m 10°C 10_10 0cm 100% 10mph 18mph 1017mB
18:00 3299m 13°C 13_20 0cm 99% 20mph 30mph 1016mB
21:00 3447m 13°C 13_16 0cm 100% 16mph 19mph 1016mB
0:00 3438m 13°C 13_16 0cm 95% 16mph 17mph 1014mB
3:00 3666m 11°C 11_6 0cm 100% 6mph 8mph 1015mB
6:00 3798m 7°C 7_4 0cm 80% 4mph 5mph 1017mB
9:00 3832m 6°C 6_3 0cm 0% 3mph 4mph 1018mB
12:00 3830m 7°C 7_3 0cm 0% 3mph 3mph 1018mB
15:00 3811m 11°C 11_2 0cm 6% 2mph 2mph 1018mB
18:00 3739m 16°C 16_2 0cm 3% 2mph 5mph 1016mB
21:00 3930m 16°C 16_13 0cm 0% 13mph 15mph 1014mB
0:00 4009m 16°C 16_16 0cm 0% 16mph 18mph 1013mB
3:00 4057m 14°C 14_6 0cm 0% 6mph 6mph 1013mB
6:00 4073m 10°C 10_6 0cm 27% 6mph 6mph 1015mB
9:00 3988m 9°C 9_5 0cm 25% 5mph 5mph 1015mB
12:00 3900m 10°C 10_5 0cm 13% 5mph 5mph 1015mB
15:00 3790m 13°C 13_6 0cm 0% 6mph 11mph 1015mB
18:00 3692m 17°C 17_15 0cm 0% 15mph 19mph 1014mB
21:00 3764m 17°C 17_19 0cm 0% 19mph 22mph 1013mB
0:00 3704m 16°C 16_19 0cm 0% 19mph 23mph 1012mB
3:00 3943m 12°C 12_9 0cm 0% 9mph 14mph 1014mB
6:00 4029m 8°C 8_5 0cm 0% 5mph 5mph 1017mB
9:00 3980m 7°C 7_2 0cm 0% 2mph 3mph 1017mB
12:00 3974m 8°C 8_3 0cm 0% 3mph 3mph 1017mB
15:00 3984m 12°C 12_1 0cm 0% 1mph 1mph 1017mB
18:00 3833m 16°C 16_3 0cm 0% 3mph 6mph 1016mB
21:00 3992m 16°C 16_16 0cm 0% 16mph 16mph 1013mB
0:00 4293m 16°C 16_14 0cm 0% 14mph 17mph 1012mB
3:00 4309m 14°C 14_6 0cm 0% 6mph 6mph 1012mB
6:00 4277m 10°C 10_3 0cm 0% 3mph 3mph 1015mB
9:00 4281m 9°C 9_2 0cm 5% 2mph 3mph 1014mB
12:00 4294m 10°C 10_3 0cm 4% 3mph 3mph 1014mB
15:00 4254m 13°C 13_3 0cm 4% 3mph 4mph 1014mB
18:00 4053m 18°C 18_3 0cm 2% 3mph 5mph 1012mB
21:00 4254m 18°C 18_16 0cm 0% 16mph 17mph 1010mB
0:00 4342m 17°C 17_15 0cm 7% 15mph 18mph 1008mB
3:00 4359m 15°C 15_5 0cm 0% 5mph 6mph 1008mB
6:00 4343m 11°C 11_4 0cm 0% 4mph 5mph 1010mB
9:00 4249m 10°C 10_4 0cm 84% 4mph 4mph 1010mB
12:00 4053m 11°C 11_3 0cm 62% 3mph 3mph 1010mB
15:00 4030m 14°C 14_1 0cm 0% 1mph 2mph 1010mB
18:00 3939m 18°C 18_4 0cm 0% 4mph 4mph 1009mB
21:00 4102m 18°C 18_6 0cm 0% 6mph 6mph 1007mB
0:00 4080m 17°C 17_12 0cm 1% 12mph 10mph 1006mB
3:00 4151m 16°C 16_6 0cm 4% 6mph 7mph 1007mB
6:00 4176m 11°C 11_5 0cm 2% 5mph 5mph 1010mB
9:00 4056m 11°C 11_6 0cm 96% 6mph 6mph 1010mB
12:00 4067m 13°C 13_4 0cm 91% 4mph 4mph 1011mB
15:00 4103m 14°C 14_3 0cm 14% 3mph 4mph 1012mB
18:00 4053m 17°C 17_3 0cm 18% 3mph 5mph 1011mB
21:00 3947m 14°C 14_10 0cm 62% 10mph 10mph 1010mB
0:00 4139m 11°C 11_7 0cm 81% 7mph 7mph 1012mB
3:00 4015m 12°C 12_5 0cm 100% 5mph 5mph 1014mB
6:00 3970m 11°C 11_3 0cm 100% 3mph 4mph 1016mB
9:00 4174m 10°C 10_4 0cm 0% 4mph 4mph 1015mB
12:00 4231m 11°C 11_3 0cm 22% 3mph 3mph 1016mB
15:00 4316m 14°C 14_1 0cm 1% 1mph 1mph 1016mB
18:00 4276m 18°C 18_3 0cm 1% 3mph 3mph 1015mB
21:00 4244m 18°C 18_5 0cm 0% 5mph 4mph 1013mB
0:00 4255m 17°C 17_10 0cm 0% 10mph 10mph 1012mB
Afternoon 0mm 0 4408m 14°C 14_1 0cm 0% 1mph 2mph 1015mB
Morning 0mm 0 4563m 21°C 21_11 0cm 16% 11mph 10mph 1011mB
Afternoon 0mm 0 4670m 15°C 15_4 0cm 0% 4mph 5mph 1013mB
Morning 0.0625mm 0.125 4752m 20°C 20_15 0cm 31% 15mph 16mph 1007mB
Afternoon 0mm 0 4669m 14°C 14_7 0cm 0% 7mph 8mph 1012mB
Morning 0mm 0 4740m 20°C 20_20 0cm 0% 20mph 25mph 1009mB
Afternoon 0mm 0 4665m 12°C 12_6 0cm 0% 6mph 7mph 1015mB
Morning 0mm 0 4733m 18°C 18_17 0cm 72% 17mph 23mph 1012mB
Afternoon 0mm 0 4574m 12°C 12_5 0cm 51% 5mph 5mph 1015mB
Morning 0mm 0 4621m 19°C 19_14 0cm 43% 14mph 17mph 1012mB
Afternoon 0mm 0 4426m 12°C 12_4 0cm 2% 4mph 4mph 1016mB
Morning 0mm 0 4857m 20°C 20_15 0cm 20% 15mph 19mph 1013mB

16 day outlook at a glance

Forecast issued: 6/26/2019 8:53:45 AM

Chat

Your comments and questions. In a resort? Let us know what it's like!


Characters left 250

For terms and conditions see Readers Comments on the Cookie and privacy policy page.